GW1690 Weather Reports


Display with metric or nautical units.
time (UTC)temp
F
wind
direction
speed
MPH
gust
MPH
rain 1hr
in
rain 24hr
in
rain mn
in
humidity
%
barometer
mb
20260510211524 70 259 2.0 3.0 0.00 0.13 0.08 39 1017.1
20260510211021 70 282 2.0 3.0 0.00 0.13 0.08 37 1016.5
20260510210524 70 274 1.0 3.0 0.00 0.13 0.08 39 1016.8
20260510210022 70 191 2.0 5.0 0.00 0.13 0.08 39 1016.6
20260510205541 70 242 1.0 3.0 0.00 0.13 0.08 38 1016.6
20260510205042 70 243 1.0 3.0 0.00 0.13 0.08 37 1016.7
20260510204522 70 292 2.0 3.0 0.00 0.13 0.08 37 1016.4
20260510204042 70 280 2.0 3.0 0.00 0.13 0.08 37 1016.3
20260510203522 70 286 2.0 4.0 0.00 0.13 0.08 36 1016.2
20260510203023 70 288 2.0 4.0 0.00 0.13 0.08 35 1016.1
20260510202544 70 295 1.0 3.0 0.00 0.13 0.08 37 1016.4
20260510202022 69 286 2.0 3.0 0.00 0.13 0.08 36 1016.4
20260510201523 70 282 2.0 3.0 0.00 0.13 0.08 36 1016.2
20260510201023 70 284 2.0 4.0 0.00 0.13 0.08 36 1016.2
20260510200526 70 285 2.0 3.0 0.00 0.13 0.08 37 1016.4
20260510200022 70 276 1.0 2.0 0.00 0.13 0.08 40 1016.8
20260510195523 69 287 1.0 2.0 0.00 0.13 0.08 39 1016.7
20260510195023 69 290 2.0 4.0 0.00 0.13 0.08 40 1016.7
20260510194542 69 282 2.0 4.0 0.00 0.13 0.08 39 1016.6
20260510194025 69 276 1.0 3.0 0.00 0.13 0.08 40 1016.8
20260510193520 69 298 2.0 3.0 0.00 0.13 0.08 38 1016.4
20260510193121 69 284 1.0 3.0 0.00 0.13 0.08 40 1016.9
20260510192520 69 289 2.0 3.0 0.00 0.13 0.08 38 1016.6
20260510192024 69 288 2.0 4.0 0.00 0.13 0.08 38 1016.5
20260510191524 69 284 2.0 4.0 0.00 0.13 0.08 37 1016.4
20260510191043 69 282 2.0 4.0 0.00 0.13 0.08 38 1016.6
20260510190524 69 291 2.0 4.0 0.00 0.13 0.08 35 1016.2
20260510190044 69 290 2.0 3.0 0.00 0.13 0.08 39 1016.6
20260510185523 69 285 2.0 4.0 0.00 0.13 0.08 37 1016.5
20260510185024 69 288 2.0 4.0 0.00 0.13 0.08 37 1016.5
20260510184521 69 301 2.0 4.0 0.00 0.13 0.08 37 1016.3
20260510184101 69 292 2.0 4.0 0.00 0.13 0.08 38 1016.3
20260510183523 69 292 2.0 4.0 0.00 0.13 0.08 39 1016.3
20260510183021 69 283 2.0 4.0 0.00 0.13 0.08 39 1016.4
20260510182521 70 287 2.0 4.0 0.00 0.13 0.08 37 1016.0
20260510182024 71 295 2.0 4.0 0.00 0.13 0.08 37 1016.0
20260510181523 71 302 2.0 4.0 0.00 0.13 0.08 38 1016.1
20260510181024 71 283 1.0 3.0 0.00 0.13 0.08 38 1016.2
20260510180522 71 289 1.0 3.0 0.00 0.13 0.08 40 1016.5
20260510180041 70 284 2.0 4.0 0.00 0.13 0.08 39 1016.3
20260510175523 71 294 2.0 5.0 0.00 0.13 0.08 39 1016.2
20260510175022 70 280 1.0 4.0 0.00 0.13 0.08 40 1016.6
20260510174522 69 286 2.0 4.0 0.00 0.13 0.08 40 1016.7
20260510174042 68 294 2.0 4.0 0.00 0.13 0.08 40 1016.8
20260510173523 67 291 1.0 4.0 0.00 0.13 0.08 42 1017.5
20260510173023 66 310 2.0 5.0 0.00 0.13 0.08 43 1017.9
20260510172523 66 312 2.0 5.0 0.00 0.13 0.08 42 1017.4
20260510172042 66 320 1.0 5.0 0.00 0.13 0.08 42 1017.5
20260510171523 66 328 3.0 7.0 0.00 0.13 0.08 40 1016.7
20260510171023 67 353 3.0 7.0 0.00 0.13 0.08 38 1016.3
20260510170523 68 330 3.0 4.0 0.00 0.13 0.08 42 1017.3
20260510170023 68 307 3.0 5.0 0.00 0.13 0.08 41 1017.2
20260510165523 69 345 3.0 6.0 0.00 0.13 0.08 38 1016.4
20260510165024 70 314 3.0 8.0 0.00 0.13 0.08 36 1016.2
20260510164524 71 281 2.0 4.0 0.00 0.13 0.08 36 1016.1
20260510164021 71 286 2.0 3.0 0.00 0.13 0.08 38 1016.8
20260510163523 70 296 1.0 4.0 0.00 0.13 0.08 37 1016.4
20260510163019 69 302 2.0 3.0 0.00 0.13 0.08 38 1016.7
20260510162521 68 317 1.0 5.0 0.00 0.13 0.08 38 1016.7
20260510162025 67 304 1.0 5.0 0.00 0.13 0.08 39 1017.0
20260510161544 66 288 1.0 5.0 0.00 0.13 0.08 42 1017.5
20260510161023 66 336 3.0 8.0 0.00 0.13 0.08 41 1017.1
20260510160525 67 319 4.0 9.0 0.00 0.13 0.08 42 1017.9
20260510160021 68 348 4.0 8.0 0.00 0.13 0.08 39 1016.8
20260510155521 69 309 3.0 6.0 0.00 0.12 0.08 39 1016.7
20260510155021 69 285 2.0 6.0 0.00 0.12 0.08 38 1016.5
20260510154521 69 306 2.0 8.0 0.00 0.12 0.08 35 1016.0
20260510154021 68 294 2.0 4.0 0.00 0.12 0.08 37 1016.1
20260510153523 68 299 2.0 7.0 0.00 0.12 0.08 37 1015.9
20260510153025 67 320 2.0 5.0 0.00 0.12 0.08 37 1016.0
20260510152526 66 297 2.0 7.0 0.00 0.12 0.08 40 1016.3
20260510152042 65 303 3.0 7.0 0.00 0.12 0.08 42 1016.6
20260510151542 65 350 4.0 7.0 0.00 0.12 0.08 43 1017.0
20260510151022 65 356 3.0 5.0 0.00 0.12 0.08 45 1017.6
20260510150522 66 332 3.0 5.0 0.00 0.12 0.08 43 1017.0
20260510150023 66 326 3.0 6.0 0.00 0.12 0.08 43 1016.8
20260510145522 67 295 3.0 5.0 0.00 0.12 0.08 42 1016.3
20260510145022 67 284 1.0 4.0 0.00 0.12 0.08 44 1017.0
20260510144522 67 287 2.0 4.0 0.00 0.12 0.08 43 1016.4
20260510144022 67 284 2.0 5.0 0.00 0.12 0.08 44 1016.6
20260510143523 66 291 2.0 4.0 0.00 0.12 0.08 47 1017.9
20260510143023 66 330 3.0 9.0 0.00 0.12 0.08 47 1017.7
20260510142523 65 297 4.0 9.0 0.00 0.12 0.08 48 1018.5
20260510142023 65 332 4.0 9.0 0.00 0.12 0.08 53 1023.9
20260510141523 64 7 5.0 9.0 0.00 0.12 0.08 52 1021.5
20260510141024 64 349 4.0 8.0 0.00 0.12 0.08 54 1025.0
20260510140525 63 327 4.0 6.0 0.00 0.12 0.08 58 1030.3
20260510140023 62 328 3.0 6.0 0.00 0.12 0.08 61 1035.1
20260510135524 61 332 4.0 6.0 0.00 0.12 0.08 60 1035.6
20260510135023 60 306 4.0 7.0 0.00 0.12 0.08 64 1040.3
20260510134523 59 350 4.0 5.0 0.00 0.12 0.08 67 1040.2
20260510134027 58 325 4.0 4.0 0.00 0.12 0.08 70 1036.1
20260510133526 58 325 3.0 4.0 0.00 0.12 0.08 73 1033.2
20260510133027 57 297 3.0 4.0 0.00 0.12 0.08 73 1033.1
20260510132527 57 298 3.0 4.0 0.00 0.12 0.08 78 1037.0
20260510132027 56 340 3.0 4.0 0.00 0.12 0.08 80 1040.3
20260510131547 56 300 3.0 4.0 0.00 0.12 0.08 81 1041.3
20260510131026 56 343 3.0 4.0 0.00 0.12 0.08 82 1042.5
20260510130528 56 355 3.0 4.0 0.00 0.12 0.08 82 1041.8
20260510130027 55 336 3.0 4.0 0.00 0.12 0.08 82 1042.4
20260510125547 55 343 3.0 4.0 0.00 0.12 0.08 83 1042.8
20260510125031 55 326 3.0 4.0 0.00 0.12 0.08 84 1043.8
20260510124529 55 316 2.0 3.0 0.00 0.12 0.08 84 1043.6
20260510124029 55 293 2.0 3.0 0.00 0.12 0.08 85 1045.6
20260510123528 55 339 2.0 3.0 0.00 0.12 0.08 88 1045.9
20260510123028 55 295 2.0 2.0 0.00 0.12 0.08 89 1044.8
20260510122551 55 282 2.0 2.0 0.00 0.12 0.08 91 1044.4
20260510122027 55 247 2.0 2.0 0.00 0.12 0.08 92 1044.3
20260510121529 55 233 1.0 2.0 0.00 0.12 0.08 92 1044.3
20260510121029 55 267 1.0 1.0 0.00 0.12 0.08 92 1044.6
20260510120528 55 228 1.0 1.0 0.00 0.12 0.08 92 1044.8
20260510120029 55 229 1.0 1.0 0.00 0.12 0.08 92 1044.9
20260510115528 55 252 1.0 2.0 0.00 0.12 0.08 92 1044.8
20260510115030 55 250 1.0 2.0 0.00 0.12 0.08 92 1044.5
20260510114530 55 241 1.0 1.0 0.00 0.12 0.08 91 1044.3
20260510114029 55 282 1.0 2.0 0.00 0.12 0.08 92 1045.2
20260510113529 55 280 0.0 1.0 0.00 0.12 0.08 92 1046.8
20260510113028 55 296 1.0 2.0 0.00 0.12 0.08 92 1047.2
20260510112528 55 286 1.0 2.0 0.00 0.12 0.08 93 1045.9
20260510112051 56 291 1.0 1.0 0.00 0.12 0.08 93 1043.7
20260510111529 56 300 1.0 1.0 0.00 0.12 0.08 94 1042.0
20260510111030 56 287 0.0 1.0 0.00 0.12 0.08 94 1041.2
20260510110528 56 303 0.0 1.0 0.00 0.12 0.08 95 1040.7
20260510110029 56 300 0.0 1.0 0.00 0.12 0.08 95 1040.4
20260510105528 56 300 1.0 1.0 0.00 0.12 0.08 95 1040.2
20260510105030 56 300 1.0 1.0 0.00 0.12 0.08 95 1040.0
20260510104530 56 297 1.0 1.0 0.00 0.12 0.08 95 1039.8
20260510104030 56 299 0.0 1.0 0.00 0.12 0.08 95 1039.7
20260510103530 56 295 0.0 1.0 0.00 0.12 0.08 95 1039.7
20260510103029 57 0.0 0.0 0.00 0.12 0.08 95 1039.7
20260510102551 57 0.0 0.0 0.00 0.12 0.08 95 1039.6
20260510102029 57 0.0 0.0 0.00 0.12 0.08 95 1039.6
20260510101551 57 0.0 0.0 0.00 0.12 0.08 95 1039.7
20260510101029 57 301 0.0 1.0 0.00 0.12 0.08 95 1039.8
20260510100529 57 305 0.0 1.0 0.00 0.12 0.08 95 1039.9
20260510100031 57 0.0 0.0 0.00 0.12 0.08 95 1039.9
20260510095531 57 303 0.0 1.0 0.00 0.12 0.08 95 1039.9
20260510095031 57 291 0.0 1.0 0.00 0.12 0.08 95 1039.9
20260510094533 57 0.0 0.0 0.00 0.12 0.08 95 1040.1
20260510094031 57 287 0.0 1.0 0.00 0.12 0.08 95 1040.2
20260510093530 58 0.0 0.0 0.00 0.12 0.08 95 1040.3
20260510093030 58 0.0 0.0 0.00 0.12 0.08 95 1040.4
20260510092530 58 0.0 0.0 0.00 0.12 0.08 95 1040.6
20260510092053 58 0.0 0.0 0.00 0.12 0.08 95 1040.8
20260510091531 58 0.0 0.0 0.00 0.12 0.08 95 1040.9
20260510091032 57 189 0.0 1.0 0.00 0.12 0.08 95 1040.9
20260510090532 57 0.0 0.0 0.00 0.12 0.08 95 1040.9
20260510090031 58 186 0.0 1.0 0.00 0.12 0.08 95 1040.8
20260510085531 58 184 0.0 1.0 0.00 0.12 0.08 95 1040.7
20260510085031 58 175 0.0 1.0 0.00 0.12 0.08 95 1040.7
20260510084531 58 187 0.0 1.0 0.00 0.12 0.08 95 1040.5
20260510084032 58 0.0 0.0 0.00 0.12 0.08 95 1040.3
20260510083552 58 0.0 0.0 0.00 0.12 0.08 95 1040.1
20260510083036 58 0.0 0.0 0.00 0.12 0.08 95 1039.8
20260510082533 58 0.0 0.0 0.00 0.12 0.08 95 1039.6
20260510082031 58 0.0 0.0 0.00 0.12 0.08 95 1039.3
20260510081532 58 0.0 0.0 0.00 0.12 0.08 95 1038.9
20260510081033 59 0.0 0.0 0.00 0.12 0.08 95 1038.3
20260510080535 59 0.0 0.0 0.00 0.12 0.08 95 1037.8
20260510080034 59 334 0.0 1.0 0.00 0.12 0.08 95 1037.2
20260510075532 59 0.0 0.0 0.00 0.12 0.08 95 1036.7
20260510075032 59 0.0 0.0 0.00 0.12 0.08 95 1036.3
20260510074523 59 0.0 0.0 0.00 0.12 0.08 95 1036.0
20260510074021 59 0.0 0.0 0.00 0.12 0.08 95 1035.8
20260510073523 59 0.0 0.0 0.00 0.12 0.08 94 1035.7
20260510073024 59 0.0 0.0 0.00 0.12 0.08 94 1035.4
20260510072525 59 0.0 0.0 0.00 0.12 0.08 94 1035.2
20260510072105 59 149 0.0 1.0 0.00 0.12 0.08 94 1035.2
20260510071524 60 0.0 0.0 0.00 0.12 0.08 94 1035.0
20260510071021 60 346 0.0 1.0 0.00 0.12 0.08 94 1034.9
20260510070541 60 137 0.0 2.0 0.00 0.12 0.08 94 1034.8
20260510070023 60 81 0.0 1.0 0.02 0.12 0.08 94 1034.6
20260510065522 60 319 0.0 1.0 0.04 0.12 0.08 95 1034.4
20260510065021 60 296 1.0 2.0 0.05 0.12 0.08 94 1034.0
20260510064523 60 314 1.0 2.0 0.06 0.12 0.08 94 1033.6
20260510064042 60 339 2.0 3.0 0.06 0.12 0.08 94 1033.2
20260510063542 60 338 2.0 3.0 0.07 0.12 0.08 94 1032.9
20260510063021 60 278 2.0 3.0 0.07 0.12 0.08 94 1032.7
20260510062522 61 263 2.0 2.0 0.07 0.12 0.08 94 1033.0
20260510062025 61 243 2.0 2.0 0.07 0.12 0.08 94 1033.6
20260510061525 61 331 2.0 5.0 0.08 0.12 0.08 93 1034.6
20260510061022 61 327 3.0 4.0 0.08 0.12 0.08 93 1036.2
20260510060523 61 255 4.0 7.0 0.08 0.12 0.08 92 1037.9
20260510060023 61 290 3.0 5.0 0.06 0.10 0.06 91 1038.8
20260510055605 61 341 2.0 3.0 0.04 0.08 0.04 89 1037.1
20260510055022 61 237 1.0 3.0 0.04 0.08 0.03 89 1032.9
20260510054521 61 210 2.0 3.0 0.03 0.06 0.02 92 1032.7
20260510054025 61 198 1.0 3.0 0.03 0.06 0.02 94 1033.5
20260510053523 61 195 1.0 3.0 0.03 0.06 0.01 93 1034.3
20260510053024 61 196 1.0 2.0 0.03 0.06 0.01 93 1035.1
20260510052525 61 202 1.0 3.0 0.03 0.06 0.01 93 1037.4
20260510052024 61 204 1.0 2.0 0.03 0.05 0.01 92 1039.0
20260510051526 61 214 1.0 2.0 0.02 0.05 0.00 92 1039.8
20260510051021 61 219 1.0 1.0 0.03 0.05 0.00 91 1040.6
20260510050524 61 246 1.0 4.0 0.03 0.04 0.00 91 1041.6
20260510050021 61 302 1.0 5.0 0.03 0.04 0.00 91 1042.4
20260510045521 61 284 2.0 5.0 0.03 0.04 0.04 90 1043.2
20260510045021 61 332 2.0 4.0 0.02 0.03 0.03 89 1043.6
20260510044602 61 338 2.0 4.0 0.02 0.03 0.03 89 1043.4
20260510044025 61 328 2.0 3.0 0.02 0.03 0.03 90 1043.4
20260510043524 61 347 1.0 3.0 0.03 0.03 0.03 89 1043.6
20260510043028 62 351 2.0 4.0 0.02 0.02 0.02 89 1043.5
20260510042521 62 342 1.0 3.0 0.02 0.03 0.02 89 1043.2
20260510042022 62 341 1.0 3.0 0.02 0.03 0.02 88 1043.1
20260510041521 62 326 1.0 4.0 0.02 0.03 0.02 88 1043.1
20260510041021 63 297 2.0 5.0 0.02 0.02 0.02 87 1042.9
20260510040522 63 323 2.0 6.0 0.02 0.03 0.02 85 1041.9
20260510040022 64 357 5.0 10.0 0.01 0.04 0.01 84 1040.4
20260510035522 65 6 6.0 10.0 0.01 0.05 0.01 82 1038.9
20260510035042 66 350 5.0 9.0 0.01 0.05 0.01 80 1036.7
20260510034520 67 347 5.0 7.0 0.01 0.05 0.01 76 1032.1
20260510034022 68 305 2.0 5.0 0.01 0.06 0.01 70 1027.7
20260510033602 68 301 2.0 6.0 0.00 0.10 0.00 65 1032.5
20260510033026 69 290 2.0 4.0 0.00 0.12 0.00 62 1035.8
20260510032543 69 248 1.0 2.0 0.00 0.14 0.00 62 1035.5
20260510032023 69 224 1.0 1.0 0.00 0.16 0.00 62 1035.4
20260510031543 69 225 1.0 2.0 0.00 0.18 0.00 61 1034.8
20260510031022 69 223 1.0 1.0 0.00 0.20 0.00 61 1035.4
20260510030521 69 230 1.0 2.0 0.00 0.22 0.00 62 1035.4
20260510030021 69 219 1.0 2.0 0.00 0.24 0.00 60 1034.9
20260510025540 69 211 0.0 1.0 0.00 0.25 0.00 60 1035.3
20260510025022 69 0.0 0.0 0.00 0.27 0.00 60 1035.3
20260510024521 69 0.0 0.0 0.00 0.30 0.00 60 1035.1
20260510024023 69 0.0 0.0 0.00 0.34 0.00 59 1034.3
20260510023523 69 0.0 0.0 0.00 0.36 0.00 58 1032.6
20260510023024 69 0.0 0.0 0.00 0.37 0.00 57 1031.3
20260510022523 69 0.0 0.0 0.00 0.38 0.00 57 1029.8
20260510022023 69 0.0 0.0 0.00 0.40 0.00 55 1026.2
20260510021542 69 0.0 0.0 0.00 0.42 0.00 55 1025.7
20260510021022 70 0.0 0.0 0.00 0.43 0.00 53 1022.5
20260510020520 70 0.0 0.0 0.00 0.43 0.00 53 1022.2
20260510020023 70 0.0 0.0 0.00 0.43 0.00 53 1021.5
20260510015600 70 0.0 0.0 0.00 0.43 0.00 53 1020.6
20260510015021 70 0.0 0.0 0.00 0.43 0.00 53 1021.1
20260510014521 71 0.0 0.0 0.00 0.43 0.00 52 1019.1
20260510014042 71 0.0 0.0 0.00 0.43 0.00 51 1018.3
20260510013523 72 0.0 0.0 0.00 0.43 0.00 51 1018.1
20260510013021 72 0.0 0.0 0.00 0.43 0.00 50 1016.8
20260510012521 72 0.0 0.0 0.00 0.43 0.00 49 1014.8
20260510012023 73 0.0 0.0 0.00 0.43 0.00 48 1013.4
20260510011521 73 0.0 0.0 0.00 0.43 0.00 48 1012.8
20260510011041 73 0.0 0.0 0.00 0.43 0.00 47 1011.9
20260510010522 74 0.0 0.0 0.00 0.43 0.00 47 1011.8
20260510010022 74 0.0 0.0 0.00 0.44 0.00 47 1011.8
20260510005523 74 0.0 0.0 0.00 0.44 0.00 46 1011.3
20260510005022 75 0.0 0.0 0.00 0.44 0.00 45 1010.2
20260510004522 75 0.0 0.0 0.00 0.44 0.00 44 1009.9
20260510004022 75 209 0.0 1.0 0.00 0.45 0.00 44 1009.8
20260510003602 76 0.0 0.0 0.00 0.46 0.00 43 1009.3
20260510003022 76 280 0.0 1.0 0.00 0.46 0.00 43 1009.2
20260510002522 76 0.0 0.0 0.00 0.46 0.00 43 1009.0
20260510002024 77 195 0.0 1.0 0.00 0.47 0.00 44 1009.6
20260510001522 77 198 0.0 1.0 0.00 0.47 0.00 42 1008.8
20260510001023 77 151 0.0 0.0 0.00 0.47 0.00 43 1009.0
20260510000523 77 185 0.0 1.0 0.00 0.47 0.00 42 1008.7
20260510000022 77 165 0.0 2.0 0.00 0.47 0.00 42 1008.6
20260509235520 78 189 1.0 2.0 0.00 0.47 0.00 40 1008.1
20260509235025 78 203 1.0 2.0 0.00 0.47 0.00 40 1008.3
20260509234523 78 191 1.0 3.0 0.00 0.47 0.00 40 1007.9
20260509234024 78 184 1.0 4.0 0.00 0.47 0.00 40 1008.0
20260509233523 78 195 0.0 2.0 0.00 0.47 0.00 40 1008.2
20260509233023 79 193 0.0 4.0 0.00 0.47 0.00 40 1008.2
20260509232523 79 180 1.0 4.0 0.00 0.47 0.00 41 1008.0
20260509232020 79 188 0.0 1.0 0.00 0.47 0.00 39 1007.7
20260509231521 79 188 0.0 2.0 0.00 0.47 0.00 41 1008.3
20260509231022 79 316 0.0 3.0 0.00 0.47 0.00 38 1007.6
20260509230541 79 198 1.0 5.0 0.00 0.47 0.00 40 1008.0
20260509230021 79 191 1.0 4.0 0.00 0.47 0.00 39 1007.9
20260509225521 79 193 1.0 4.0 0.00 0.47 0.00 40 1008.0
20260509225024 80 183 1.0 6.0 0.00 0.47 0.00 41 1008.4
20260509224524 80 224 1.0 3.0 0.00 0.47 0.00 41 1008.1
20260509224026 80 275 1.0 2.0 0.00 0.47 0.00 40 1008.2
20260509223524 80 292 0.0 2.0 0.00 0.47 0.00 40 1007.9
20260509223044 80 184 1.0 5.0 0.00 0.47 0.00 40 1008.1
20260509222541 80 186 2.0 3.0 0.00 0.47 0.00 41 1008.5
20260509222023 80 179 1.0 3.0 0.00 0.47 0.00 42 1008.4
20260509221521 81 189 1.0 3.0 0.00 0.47 0.00 42 1008.7
20260509221042 81 170 1.0 4.0 0.00 0.47 0.00 40 1008.0
20260509220542 83 170 2.0 5.0 0.00 0.47 0.00 40 1007.7
20260509220042 83 278 1.0 3.0 0.00 0.47 0.00 41 1008.4
20260509215522 83 187 1.0 3.0 0.00 0.47 0.00 39 1007.9
20260509215024 82 306 1.0 3.0 0.00 0.47 0.00 39 1007.8
20260509214523 82 330 0.0 2.0 0.00 0.47 0.00 40 1008.1
20260509214022 82 334 1.0 3.0 0.00 0.47 0.00 39 1007.8
20260509213523 81 311 1.0 4.0 0.00 0.47 0.00 40 1007.9
20260509213022 81 258 1.0 4.0 0.00 0.47 0.00 41 1008.1
20260509212523 81 195 1.0 4.0 0.00 0.47 0.00 42 1008.8
20260509212043 81 334 1.0 3.0 0.00 0.47 0.00 40 1007.8